Погода в Зуунмоде

Монголия     47°42′10″N   106°57′02″E
темп.,
°C
ветер,
м/с
пор.,
м/с
влажн.,
%
обл.,
%
осадки,
мм/ч
давл.,
гПа
погр.,
м
18 мая, вт
вт1823:00+11з2251100 0.0 100313
02:00+8сз227894 0.1 100526
05:00+6ссз229248 0.1 100513
08:00+9сз237780 0.1 1005327
11:00+12сз5753100 0.0 10041427
14:00+14ссз7842100 0.0 10041680
17:00+13ссз564057 0.0 10041243
20:00+10сз225134 0.0 100538
19 мая, ср
ср1923:00+7зсз116138 0.0 100610
02:00+6ю226284 0.0 100411
05:00+6ю226558 0.0 100317
08:00+11зюз5124899 0.0 1000771
11:00+16з812345 0.0 9982020
14:00+18зсз7102999 0.0 9972827
17:00+16ссз883681 0.0 9971963
20:00+13св224889 0.0 99912
20 мая, чт
чт2023:00+11вюв225196 0.0 100014
02:00+10ююв33545 0.0 99930
05:00+8юв336041 0.0 99931
08:00+12юв23505 0.0 998259
11:00+18ююз35305 0.0 9961045
14:00+23юз56195 0.0 9933010
17:00+23зюз38155 0.0 9903564
20:00+17сз453299 0.0 992150
21 мая, пт
пт2123:00+14вюв33410 0.0 99334
02:00+13юв22343 0.0 99212
05:00+12юз3835100 0.0 993129
08:00+15юз49342 0.0 993595
11:00+20зюз81521100 0.0 9902937
14:00+22юз122120100 0.0 9874157
17:00+18з91516100 0.0 9893007
20:00+11з71226100 0.0 9931206
22 мая, сб
сб2223:00+6з912270 0.0 9971074
02:00+2з814430 0.0 10001215
05:00−1з101481100 0.0 10021028
08:00−1зсз81377100 1.2 10031190
11:00+1сз10137199 1.6 10041407
14:00+2ссз13166299 2.4 10061772
17:00+2ссз121855100 0.4 10092067
20:000сз10176371 0.4 10121666